TimePST,TemperatureF,Dew PointF,Humidity,Sea Level PressureIn,VisibilityMPH,Wind Direction,Wind SpeedMPH,Gust SpeedMPH,PrecipitationIn,Events,Conditions,WindDirDegrees,DateUTC
12:52 AM,48.0,35.1,61,29.79,10.0,South,25.3,33.4,N/A,,Clear,180,2013-01-09 08:52:00
1:52 AM,48.9,34.0,56,29.79,10.0,South,21.9,28.8,N/A,,Clear,190,2013-01-09 09:52:00
2:52 AM,45.0,35.1,68,29.80,10.0,South,13.8,-,N/A,,Clear,180,2013-01-09 10:52:00
3:52 AM,44.1,34.0,68,29.77,10.0,South,17.3,-,N/A,,Clear,170,2013-01-09 11:52:00
4:52 AM,45.0,32.0,60,29.73,10.0,South,17.3,23.0,N/A,,Clear,170,2013-01-09 12:52:00
5:52 AM,42.1,33.1,70,29.71,10.0,SSE,12.7,-,N/A,,Clear,160,2013-01-09 13:52:00
6:52 AM,42.1,33.1,70,29.68,10.0,South,11.5,-,N/A,,Clear,170,2013-01-09 14:52:00
7:52 AM,46.0,33.1,61,29.66,10.0,South,18.4,23.0,N/A,,Clear,180,2013-01-09 15:52:00
8:52 AM,46.4,33.8,62,29.61,10.0,South,16.1,-,N/A,,Scattered Clouds,170,2013-01-09 16:52:00
9:52 AM,45.0,36.0,71,29.62,10.0,South,15.0,-,N/A,,Overcast,170,2013-01-09 17:52:00
10:52 AM,46.9,37.0,68,29.61,10.0,South,15.0,-,N/A,,Clear,180,2013-01-09 18:52:00
11:52 AM,48.9,34.0,56,29.61,10.0,SW,18.4,24.2,N/A,,Partly Cloudy,220,2013-01-09 19:52:00
12:52 PM,46.0,30.0,54,29.75,10.0,SW,18.4,-,N/A,,Mostly Cloudy,230,2013-01-09 20:52:00
1:52 PM,44.1,30.9,60,29.77,10.0,West,11.5,-,N/A,,Partly Cloudy,260,2013-01-09 21:52:00
2:52 PM,44.1,33.1,65,29.66,10.0,WSW,11.5,-,N/A,,Clear,250,2013-01-09 22:52:00
3:52 PM,43.0,32.0,65,29.68,10.0,WSW,9.2,-,N/A,,Scattered Clouds,240,2013-01-09 23:52:00
4:52 PM,42.1,30.0,62,29.70,10.0,WSW,6.9,-,N/A,,Mostly Cloudy,250,2013-01-10 00:52:00
5:52 PM,41.0,27.0,57,29.73,10.0,SW,8.1,-,N/A,,Overcast,220,2013-01-10 01:52:00
6:52 PM,39.0,26.1,60,29.75,10.0,SW,4.6,-,N/A,,Clear,220,2013-01-10 02:52:00
7:52 PM,37.9,26.1,62,29.76,10.0,WSW,6.9,-,N/A,,Clear,250,2013-01-10 03:52:00
8:52 PM,35.1,26.1,70,29.78,10.0,Calm,Calm,-,N/A,,Clear,0,2013-01-10 04:52:00
9:52 PM,37.0,24.1,59,29.80,10.0,WSW,8.1,-,N/A,,Clear,240,2013-01-10 05:52:00
10:52 PM,35.1,21.9,59,29.80,10.0,West,9.2,-,N/A,,Clear,280,2013-01-10 06:52:00
11:52 PM,34.0,23.0,64,29.80,10.0,WSW,11.5,-,N/A,,Clear,250,2013-01-10 07:52:00